Location: Newark
(49.1939°N, 0.8136°E)
Time: 01:59:24
(UTC+00:00)

Envisat - Pass Details

Date: 25 November 2019
Orbit: 764 x 766 km, 98.1° (Epoch: 08 December)

Event Time Altitude Azimuth Distance (km) Brightness Sun altitude
Rises 18:33:29 0° 189° (S) 3,220 6.4 -23.6°
Reaches altitude 10° 18:35:58 10° 198° (SSW) 2,298 5.7 -24.0°
Maximum altitude 18:40:35 35° 264° (W) 1,217 4.6 -24.8°
Drops below altitude 10° 18:45:15 10° 330° (NNW) 2,313 5.8 -25.5°
Sets 18:47:46 0° 340° (NNW) 3,244 6.5 -25.9°
